This is the latest recevied weather packets stored in our database for station/object DK4HPA-4. If no packets are shown the sender has not sent any weather packets the latest 10 day(s).
| Time | Temp. | Humidity | Pressure | Rain* | Wind** | Luminosity | Snow |
|---|---|---|---|---|---|---|---|
| 1778231534 | 13.89° C | 47% | 1028.2 hPa | 0 mm | - | 717 W/m² | - |
| 1778229684 | 13.33° C | 53% | 1028 hPa | 0 mm | - | 709 W/m² | - |
| 1778229037 | 12.78° C | 55% | 1028.2 hPa | 0 mm | - | 688 W/m² | - |
| 1778227877 | 12.22° C | 58% | 1027.9 hPa | 0 mm | - | 640 W/m² | - |
| 1778227253 | 12.22° C | 58% | 1028 hPa | 0 mm | - | 591 W/m² | - |
| 1778226677 | 12.22° C | 59% | 1028 hPa | 0 mm | - | 590 W/m² | - |
| 1778226085 | 11.67° C | 60% | 1028 hPa | 0 mm | - | 566 W/m² | - |
| 1778225485 | 11.11° C | 61% | 1027.9 hPa | 0 mm | - | 529 W/m² | - |
| 1778224981 | 10.56° C | 62% | 1027.9 hPa | 0 mm | - | 471 W/m² | - |
| 1778224364 | 10.56° C | 64% | 1027.9 hPa | 0 mm | - | 388 W/m² | - |
| 1778223685 | 10.56° C | 63% | 1027.8 hPa | 0 mm | - | 224 W/m² | - |
| 1778222509 | 10° C | 63% | 1027.6 hPa | 0 mm | - | 244 W/m² | - |
| 1778221937 | 10° C | 61% | 1027.5 hPa | 0 mm | - | 296 W/m² | - |
| 1778221269 | 10° C | 63% | 1027.5 hPa | 0 mm | - | 260 W/m² | - |
| 1778220150 | 8.33° C | 65% | 1027.5 hPa | 0 mm | - | 222 W/m² | - |
| 1778218934 | 7.78° C | 68% | 1027.3 hPa | 0 mm | - | 160 W/m² | - |
| 1778218357 | 7.22° C | 70% | 1027.4 hPa | 0 mm | - | 139 W/m² | - |
| 1778217684 | 6.67° C | 75% | 1027.3 hPa | 0 mm | - | 122 W/m² | - |
| 1778217109 | 6.11° C | 79% | 1027.3 hPa | 0 mm | - | 62 W/m² | - |
| 1778216517 | 5.56° C | 83% | 1027.1 hPa | 0 mm | - | 54 W/m² | - |
| 1778215828 | 4.44° C | 87% | 1027.1 hPa | 0 mm | - | 44 W/m² | - |
| 1778215302 | 3.89° C | 88% | 1027 hPa | 0 mm | - | 38 W/m² | - |
| 1778214676 | 3.89° C | 87% | 1027 hPa | 0 mm | - | 30 W/m² | - |
| 1778214085 | 3.89° C | 89% | 1027 hPa | 0 mm | - | 22 W/m² | - |
| 1778213533 | 2.78° C | 90% | 1026.9 hPa | 0 mm | - | 18 W/m² | - |
* Rain latest hour (hover to see other rain measurements)
** Current wind speed in m/s (hover to see current wind gust speed)